Find Starlink 11274

NORAD ID: 61001 Int'l Des: 2024-158 Owner: SPXS Country: US Constellation: starlink operational
LEOCIRCULAR

Current View

Loading 3D Globe...

About Starlink 11274

Starlink 11274 (NORAD 61001) is a starlink constellation satellite (v2 mini d2c) launched Sep 5, 2024 by SPXS of US. It operates in LEO, CIRCULAR orbit with a mass of 960.00 kg.

About Starlink 11274

Description loading...

Upcoming Passes

Passes for default location (London). Set your location on the main map for personalized predictions.

Altitude History

Loading altitude history...

Two-Line Element Set

1 61001U 24158M 26173.28364064 -.00000051 00000-0 44390-5 0 9992
2 61001 53.1573 125.5522 0000896 93.2503 266.8618 15.69706023104013
Epoch: Jun 22, 2026 • Age: 23 hours

Current Status

Altitude 373.5 km
Velocity 7.68 km/s
Sub-Earth Point -40.30°S, 87.79°E
Launch Date Sep 5, 2024
Age 1.7 years
Type internet

Technical Details

Classification Payload
Mass 960.00 kg
Dry Mass 910.00 kg
Total Mass 960.00 kg
Length 0.30 m
Diameter 4.10 m
Span 29.00 m
Shape Box + pan
Manufacturer SPXS
Bus Type Starlink V2MD
Phase Status In Orbit
Owner/State SPXS/US

Most Searched